Regional Weather Roundup
Issued by NWS Green Bay, WI

Home | Current Version | Previous Version | Text Only | Print | Product List | Glossary On
Versions: 1 2 3 4 5 6 7 8 9 10 11 12 13 14 15 16 17 18 19 20 21 22 23 24 25 26 27 28 29 30 31 32 33 34 35 36 37 38 39 40 41 42 43 44 45 46 47 48 49 50
000
ASUS43 KGRB 280710
RWRGRB

NORTH-CENTRAL AND NORTHEAST WISCONSIN REGIONAL WEATHER ROUNDUP
NATIONAL WEATHER SERVICE GREEN BAY WI
100 AM CST SUN DEC 28 2014

WIZ005-009-010>012-018-019-280800-
NORTH CENTRAL WISCONSIN

CITY           SKY/WX    TMP DP  RH WIND       PRES   REMARKS
IRONWOOD       PTCLDY    16  10  79 W8        29.94S WCI   5
MANITOWISH WTR PTCLDY    12  10  89 SW5       29.95S WCI   4
ARBOR VITAE    CLOUDY    17  13  84 W5        29.95F WCI  10
EAGLE RIVER    CLOUDY    14  10  84 W7        29.94F WCI   4
LAND O LAKES   CLOUDY    16  12  86 W5        29.94F WCI   9
RHINELANDER    CLOUDY    12  10  92 SW5       29.97F WCI   4
PHILLIPS       PTCLDY    11   8  87 SW6       29.99S WCI   2
ANTIGO         CLOUDY    12  11  95 W6        29.99F WCI   2
TOMAHAWK       MOCLDY    13  10  88 CALM      30.00S
MERRILL        MOCLDY    12  10  92 W3        30.02S
$$

WIZ013-073-280800-
NORTHEAST WISCONSIN

CITY           SKY/WX    TMP DP  RH WIND       PRES   REMARKS
IRON MOUNTAIN    N/A     16  11  80 W7        29.96F WCI   6
MARINETTE      CLEAR     23  18  80 W5        30.02S
OCONTO         CLEAR     23  18  83 W8        30.04S
$$

WIZ017-030-035>037-045-280800-
CENTRAL WISCONSIN

CITY           SKY/WX    TMP DP  RH WIND       PRES   REMARKS
MEDFORD        CLEAR     10   8  88 W7        30.01S WCI   0
WAUSAU         PTCLDY    14  11  87 W8        30.03S WCI   3
MOSINEE        CLEAR     14  14 100 W8        30.04S WCI   3
MARSHFIELD     CLEAR     13   9  84 W6        30.05S WCI   4
WISC RAPIDS    CLEAR     18  12  77 W8        30.08F WCI   8
STEVENS POINT  CLEAR     17  13  87 W8        30.06S WCI   6
WAUPACA        CLEAR     23  19  85 W10       30.07F
SHAWANO        CLEAR     22  18  83 W7        30.06R
CLINTONVILLE   CLEAR     21  18  86 W7        30.06S
$$

WIZ038-039-048-051-280800-
FOX VALLEY

CITY           SKY/WX    TMP DP  RH WIND       PRES   REMARKS
NWS GREEN BAY  CLEAR     24  19  81 W12       30.05F
APPLETON       CLEAR     23  19  86 W12       30.06F
OSHKOSH        CLEAR     24  17  74 W8        30.07F
FOND DU LAC    CLEAR     23  17  78 W6        30.08F
$$

WIZ022-050-052-280800-
EAST CENTRAL WISCONSIN

CITY           SKY/WX    TMP DP  RH WIND       PRES   REMARKS
STURGEON BAY   CLEAR     25  16  68 W10       30.03F
MANITOWOC      CLOUDY    26  20  77 W9G17     30.06S
SHEBOYGAN      CLEAR     26  18  71 W12       30.06S
$$

LMZ563-521-522-541>543-280800-
LAKESHORE

STATION/POSITION TIME  TEMP    WIND        PRES    VSBY  WAVE
                       AIR SEA DIR/SP/G                  HT/PER
                 (UTC) (F)     (DEG/KT/KT) (MB)    (MI)  (FT/S)
SHEBOYGAN LKSHOR 0700   27 38  280/ 17/ 19 1018.7F
KEWAUNEE LKSHORE 0700   26     280/ 11/ 17 1016.1S
ALGOMA MARINA    0700          320/ 10/ 13   N/A
NORTHPORT PIER   0700   27     280/ 10/ 15 1015.9F
SISTER BAY LKSHO 0700          290/ 21/ 24   N/A
CHAMBERS ISLAND  0700   25     250/  6/ 10 1016.6S
MENOMINEE LKSHOR 0700   25     250/  7/ 10 1017.3F
$$


USA.gov is the U.S. government's official web portal to all federal, state and local government web resources and services.